GFSSW_850_spd_057.txt.gz
Wind_Speed
7 6 6 5 4 3 3 3 2 1 1 1 2 3 3 3 4 4 3 4 4 6 5 5 4 4 4 4 3 3 5 3 7 7 4 9 4 7 7 12 9 10 6 6 25
6 5 5 4 4 3 2 2 2 3 2 3 3 4 4 4 3 3 4 5 6 6 6 5 4 4 3 3 2 4 4 9 5 5 4 8 6 12 7 9 5 10 11 14 26
7 6 5 4 3 3 2 2 3 3 4 4 4 5 5 4 1 1 2 4 6 7 7 5 5 3 3 2 2 3 4 5 3 3 5 9 5 8 10 4 13 19 18 23 28
9 8 6 5 4 3 3 3 3 4 5 5 6 6 5 2 2 1 1 2 6 7 7 7 5 4 3 2 2 3 1 3 4 2 5 6 5 5 14 7 11 13 19 25 28
11 10 9 8 7 6 5 5 5 5 5 6 6 6 4 2 2 3 1 2 5 7 8 7 5 4 4 3 2 2 2 2 3 4 4 5 7 6 13 14 10 15 22 24 26
12 12 12 11 10 9 8 7 7 6 6 6 6 6 4 3 4 5 5 4 5 7 7 6 4 4 5 2 2 1 1 2 4 5 4 4 3 4 9 16 14 17 24 25 26
12 13 13 13 13 12 11 9 8 8 8 7 7 7 7 8 5 7 6 6 6 6 6 5 4 2 5 3 2 2 3 5 6 6 4 6 6 10 16 16 18 20 23 25 26
6 8 10 13 14 14 13 11 10 9 9 9 8 8 6 8 10 10 8 6 6 7 6 5 3 4 3 6 4 3 4 2 2 7 2 7 8 8 20 19 24 24 25 27 28
7 6 5 7 12 14 13 13 13 10 10 9 8 6 7 8 13 12 12 9 9 8 6 5 6 3 4 5 4 6 3 4 7 10 3 5 6 2 6 20 26 29 30 30 30
10 6 6 6 6 9 12 12 13 12 12 10 11 5 13 6 8 12 13 10 7 8 6 5 2 3 3 4 5 6 4 4 5 3 3 4 12 10 9 15 28 29 31 33 34
16 11 8 7 8 7 8 8 8 6 14 10 5 5 2 9 8 9 14 12 8 6 5 2 3 7 13 8 3 5 4 5 4 3 4 8 10 12 16 18 22 28 32 37 39
21 17 15 18 11 10 10 5 5 3 7 15 23 17 8 10 8 13 16 11 7 5 6 4 7 10 4 5 4 2 3 6 5 5 6 8 12 11 7 15 30 34 37 40 40
20 20 22 19 19 21 17 12 9 5 5 9 21 25 24 19 12 20 24 12 5 6 8 8 5 5 8 5 5 5 6 5 7 3 4 4 8 8 11 22 29 34 40 41 45
15 15 18 18 21 26 21 12 11 3 3 6 8 13 25 17 9 19 28 12 5 12 7 6 4 4 4 5 9 7 8 6 5 2 5 2 8 5 6 11 10 32 40 48 50
16 16 13 21 21 20 10 6 10 5 4 4 5 5 12 16 12 16 33 15 9 9 8 9 8 7 6 7 9 7 4 5 1 3 3 4 3 3 1 8 14 24 40 46 44
14 15 17 17 22 20 15 10 14 4 8 2 3 5 6 3 3 6 16 6 5 5 3 5 3 7 8 2 6 7 5 5 4 3 4 15 8 10 6 13 8 20 32 33 33
12 14 18 19 23 19 19 20 2 5 4 4 3 4 1 4 3 4 7 10 10 6 11 2 5 3 5 5 3 4 6 2 3 0 9 4 5 18 5 9 12 15 31 25 18
14 15 17 22 23 21 24 2 6 8 8 3 2 3 6 5 3 5 7 9 9 2 3 10 9 12 7 14 8 7 9 6 8 4 5 1 7 7 11 20 25 29 32 29 20
15 17 22 20 23 25 20 8 8 8 6 8 4 3 3 2 4 4 6 5 9 14 11 7 7 2 2 3 12 6 7 6 2 2 2 6 8 8 12 11 17 26 21 22 18
14 18 28 20 18 26 11 20 9 11 6 4 13 9 10 7 7 6 8 5 6 13 4 4 3 1 2 4 3 6 7 3 2 2 5 5 7 8 6 10 11 12 19 20 15
13 7 13 12 19 18 11 6 18 14 18 6 10 10 9 9 10 6 6 3 6 6 23 4 4 1 3 7 11 3 5 2 5 5 5 3 8 8 12 10 10 9 16 17 17
13 4 10 15 14 7 16 21 7 10 24 13 4 14 11 9 9 9 13 7 16 10 10 8 4 5 9 2 3 2 6 9 5 5 5 2 16 4 8 7 10 12 9 8 9
10 14 14 17 9 13 11 16 23 12 16 12 12 10 5 9 6 10 7 11 16 11 11 8 3 2 7 2 3 5 5 11 4 3 10 5 15 4 2 5 10 12 8 8 6
7 3 19 28 26 10 19 20 17 16 14 20 9 12 9 16 16 9 10 6 25 19 20 17 6 9 14 3 5 7 9 11 17 9 13 20 23 7 5 7 8 14 11 11 10
18 7 9 5 16 17 7 9 20 12 17 22 7 13 15 14 19 20 7 6 5 12 9 10 8 15 23 10 5 7 9 16 20 29 12 33 17 26 16 10 19 24 24 19 16
12 6 10 8 9 7 19 11 11 4 14 15 18 18 15 11 11 6 19 14 13 5 10 9 5 9 18 16 11 11 8 20 28 26 26 31 26 5 2 17 8 27 29 25 24
31 21 17 10 6 8 10 18 22 15 12 16 8 5 11 13 10 16 11 7 4 17 10 13 9 8 16 13 10 10 31 28 18 21 24 25 38 6 16 11 24 34 32 29 32

GFSSW_850_spd_060.txt.gz
Wind_Speed
7 6 5 4 4 3 3 2 3 3 4 4 5 5 5 5 4 3 3 4 5 6 6 4 3 2 3 4 4 4 5 3 6 7 4 9 4 6 6 8 12 11 6 5 20
11 7 5 5 3 3 3 3 3 3 4 4 5 6 5 5 3 2 3 5 5 6 6 5 3 3 2 2 2 4 4 9 6 5 3 7 5 12 6 7 10 10 14 10 20
10 10 7 4 4 3 3 3 2 3 3 4 5 5 5 4 2 1 3 5 6 7 6 5 4 2 3 2 2 3 4 5 3 3 4 7 4 10 8 4 14 20 18 16 21
9 9 8 7 6 5 4 4 3 3 4 5 5 5 5 2 2 1 2 3 5 7 7 5 4 2 3 2 2 2 2 4 3 1 2 4 4 6 14 9 8 17 16 20 24
10 10 9 8 7 7 6 5 5 5 5 5 5 5 4 3 3 3 2 2 5 7 7 6 5 4 5 3 2 2 2 2 2 2 2 3 4 7 13 20 12 11 17 21 25
11 12 12 11 10 9 8 8 7 6 6 6 6 5 4 2 4 6 3 3 5 7 7 6 3 3 6 3 2 1 2 1 2 3 4 3 2 3 6 17 18 15 18 23 26
10 10 14 14 13 11 10 9 9 8 8 7 7 7 7 7 6 7 7 7 6 6 6 4 5 1 5 4 2 2 2 4 4 4 3 3 6 10 22 12 17 19 21 25 28
6 7 8 12 14 14 13 11 10 10 10 9 8 8 6 7 9 8 9 9 8 6 5 5 3 5 3 7 5 4 5 3 2 4 2 6 8 9 11 22 22 21 22 26 29
6 8 7 8 9 11 13 13 13 11 11 10 9 6 6 7 11 12 12 8 7 6 6 5 5 4 4 5 4 6 3 3 8 8 2 4 6 4 4 12 23 24 26 28 30
10 7 8 7 7 7 8 11 13 12 12 10 12 5 11 5 8 11 12 10 6 8 5 4 3 4 3 4 5 6 3 4 4 2 2 4 13 11 15 11 20 23 27 32 34
23 10 8 7 7 9 6 4 6 6 12 8 4 5 2 9 7 9 13 12 8 6 4 2 3 7 13 6 3 5 4 4 4 3 3 8 11 11 21 17 26 31 30 32 36
22 18 14 13 7 4 8 6 5 4 9 13 23 17 9 9 7 12 15 11 7 5 5 4 6 10 6 5 4 3 3 5 5 3 4 9 14 13 13 18 31 35 37 38 37
22 20 21 20 16 15 14 8 7 6 5 10 18 19 22 18 11 18 22 11 5 5 7 8 5 4 7 4 5 5 6 5 7 3 4 4 8 8 9 22 32 37 39 38 42
13 14 17 20 20 22 19 12 5 3 3 6 7 10 20 14 8 19 25 10 4 12 6 6 4 5 4 4 8 6 8 5 3 1 5 2 6 6 7 10 9 30 36 44 46
13 14 13 13 16 14 9 12 9 6 5 3 3 3 12 12 10 12 29 13 9 8 8 8 9 7 6 7 7 7 6 6 3 3 4 4 1 4 2 8 14 19 38 41 41
10 13 14 13 11 13 15 13 9 4 7 4 0 3 5 2 2 5 13 4 5 5 3 4 2 7 8 3 5 8 6 5 4 2 5 11 9 10 7 12 7 18 31 31 27
10 11 13 13 8 15 13 20 2 5 1 5 5 4 2 2 1 2 6 7 8 6 9 2 5 3 4 6 3 3 6 2 3 1 10 3 3 16 4 7 11 14 30 25 18
12 13 13 15 18 11 19 1 5 8 7 3 3 3 5 6 3 2 6 5 7 2 3 9 9 12 8 11 8 9 8 6 8 4 6 5 8 7 12 19 27 33 35 31 24
14 14 18 15 13 18 17 7 7 6 6 8 2 3 3 4 5 3 6 5 8 11 9 6 7 2 2 2 12 7 8 4 1 2 2 5 7 8 8 13 11 26 24 22 17
14 12 22 15 12 20 7 7 7 12 5 4 11 7 9 7 7 7 8 5 5 12 3 4 4 1 1 3 3 6 6 3 2 3 5 6 6 7 7 10 12 13 21 23 16
10 6 3 3 16 10 10 7 9 16 10 7 8 6 7 7 8 6 6 3 7 6 22 6 5 1 2 7 10 4 5 2 4 5 5 3 9 8 11 11 8 8 10 6 7
13 3 7 9 8 6 13 7 17 17 12 16 5 11 11 10 7 9 12 8 16 9 11 9 4 6 10 2 2 2 6 8 5 5 3 3 15 3 7 6 9 10 5 3 4
8 10 8 12 7 12 9 12 19 11 6 3 11 12 12 12 8 12 8 8 17 11 9 7 4 2 7 3 2 5 5 8 4 3 11 7 15 3 3 4 5 9 7 5 5
6 2 14 21 17 5 16 20 14 11 22 24 13 9 12 17 16 7 11 7 23 17 18 17 5 8 13 4 5 5 7 11 15 7 17 14 34 11 3 6 7 13 14 11 11
13 6 8 4 16 12 7 5 14 15 11 10 13 24 17 15 17 19 10 2 3 10 10 12 8 11 20 10 4 7 7 14 21 28 10 35 19 31 17 10 17 25 17 19 24
9 4 9 5 6 10 17 17 16 13 10 10 18 14 15 18 16 6 20 12 9 7 12 9 5 10 17 17 17 13 8 17 22 23 24 31 28 15 10 19 14 27 37 38 38
24 19 5 8 8 3 7 8 17 16 17 21 14 9 16 16 19 25 31 14 5 3 9 15 9 9 17 10 8 9 30 24 17 19 21 23 35 17 16 10 25 32 36 35 32

GFSSW_850_spd_063.txt.gz
Wind_Speed
10 10 8 6 5 3 3 2 3 2 2 2 2 2 3 4 4 3 4 5 5 6 6 5 4 4 5 5 4 5 4 2 5 7 4 10 6 6 6 5 11 10 6 5 19
10 8 9 8 5 3 2 2 2 2 3 3 2 3 3 3 4 4 5 6 5 6 7 6 5 5 4 3 2 4 4 9 5 5 3 8 6 12 6 7 9 11 14 9 16
8 8 7 7 7 5 3 1 2 3 3 4 4 4 3 2 2 4 6 6 6 6 7 6 5 4 4 3 2 3 5 4 4 4 4 6 5 10 8 4 14 18 17 16 15
6 6 5 5 5 5 4 2 1 3 4 5 5 4 3 2 4 3 4 5 7 8 8 6 6 4 3 3 2 2 1 4 3 3 4 5 5 6 15 12 6 16 12 17 19
8 7 6 6 6 5 4 3 3 2 4 5 5 5 3 2 3 4 3 3 6 8 9 8 7 5 5 5 3 3 5 3 2 2 2 4 6 10 13 20 15 9 14 18 21
9 10 9 9 8 8 7 6 5 4 4 5 5 5 3 2 5 7 4 3 5 8 8 9 6 6 7 3 3 2 3 1 2 4 4 3 3 3 5 17 18 18 17 17 21
7 9 11 11 11 10 10 10 9 8 6 6 6 6 5 7 5 8 7 6 6 7 9 8 9 5 7 4 4 2 0 4 2 2 2 1 6 10 19 14 11 18 19 20 22
1 3 6 9 10 11 12 12 12 11 10 8 6 6 5 6 8 8 9 8 7 7 7 7 6 7 3 8 4 3 4 1 2 3 2 4 7 10 6 16 25 23 22 23 25
4 4 3 3 5 6 8 12 12 12 12 10 9 4 4 6 11 13 11 10 9 7 7 6 6 4 5 5 4 6 3 3 7 6 1 4 6 6 4 7 17 21 26 27 27
11 5 7 5 2 2 4 7 10 10 11 11 12 5 10 6 9 14 14 11 7 8 7 5 4 4 3 3 5 6 3 3 5 2 1 3 13 11 18 16 20 21 22 26 30
23 19 7 7 4 2 4 2 2 3 7 7 4 3 2 7 8 11 15 13 10 6 4 3 5 6 12 5 3 5 2 3 4 3 3 7 11 12 25 22 27 30 31 33 35
22 24 21 19 9 3 2 2 2 1 6 10 17 19 13 7 5 13 17 12 7 5 5 5 5 10 6 6 4 4 3 5 6 3 4 8 14 16 12 22 33 36 42 44 41
15 18 19 16 12 15 9 3 3 7 2 7 13 13 20 18 7 15 21 12 5 6 8 8 5 6 7 5 6 4 6 5 7 3 3 6 7 8 8 23 34 42 48 44 43
12 6 21 14 18 20 17 7 1 8 3 6 5 7 16 14 7 16 22 7 4 12 9 6 5 6 5 5 8 5 8 5 4 3 4 1 6 8 7 13 7 29 34 39 42
11 10 10 13 6 10 6 3 8 3 4 4 2 2 7 9 7 9 25 11 8 8 8 8 10 7 5 8 8 7 5 6 3 3 4 2 4 7 0 8 11 23 37 36 35
11 11 12 10 11 4 7 9 11 4 8 3 6 4 4 2 3 4 9 3 5 5 2 3 1 6 8 3 4 9 6 6 4 2 4 9 7 9 6 7 6 11 27 28 23
10 10 11 11 4 9 6 20 3 6 1 5 4 4 6 5 2 2 5 5 7 5 8 2 4 3 4 6 4 2 6 1 3 0 9 2 5 18 6 9 8 13 30 24 17
13 11 11 11 12 8 12 4 6 4 7 3 3 3 6 5 3 4 6 5 6 2 3 8 8 11 7 9 9 9 8 6 8 4 4 3 8 7 9 17 25 31 34 33 27
14 12 13 10 11 15 8 8 7 6 3 6 2 2 3 3 5 4 8 6 8 11 9 6 6 2 2 2 9 6 8 3 1 3 2 6 9 9 9 13 16 27 25 22 19
12 10 18 12 10 17 5 10 5 6 5 3 6 7 8 5 6 8 9 5 6 12 4 5 4 0 1 2 2 6 6 3 1 4 4 6 6 9 5 9 10 8 22 26 20
7 3 3 16 16 10 8 8 5 7 6 4 5 3 4 5 6 5 7 3 7 5 19 5 4 1 3 6 10 4 5 2 4 5 5 2 8 8 10 9 9 8 8 8 9
8 1 8 15 7 6 10 7 8 4 6 10 5 5 7 7 5 6 10 8 16 10 10 8 4 7 11 3 3 3 6 8 5 5 3 2 16 4 6 6 5 10 3 2 4
6 9 6 21 5 8 3 5 6 2 3 7 4 9 6 11 9 10 6 6 13 10 11 8 4 1 7 2 2 5 5 7 3 3 10 7 16 2 4 5 5 7 5 4 7
9 2 12 15 10 6 7 6 6 4 16 17 10 7 9 3 7 5 5 5 18 19 20 15 5 9 13 5 5 6 7 9 13 4 18 11 32 17 3 5 9 12 11 11 11
14 7 9 5 11 5 1 3 11 10 12 8 6 17 19 14 18 21 19 15 8 9 8 10 12 8 20 10 3 4 6 14 17 25 12 31 18 31 12 10 21 33 35 38 37
7 6 7 3 6 14 10 16 15 9 1 3 15 15 9 14 17 19 8 14 15 3 9 5 9 12 21 21 20 19 9 10 21 21 20 29 26 29 26 24 17 28 37 40 40
20 13 7 8 4 7 10 14 16 9 13 20 12 11 11 10 8 9 15 16 14 3 3 6 7 8 21 21 13 11 25 27 21 18 21 19 32 19 18 14 20 32 38 39 39

GFSSW_850_spd_069.txt.gz
Wind_Speed
12 11 11 9 9 9 8 7 6 6 5 4 4 3 3 4 4 5 4 7 8 8 8 7 5 5 7 4 4 3 7 9 10 6 3 8 9 5 5 7 5 6 2 4 14
11 10 9 9 8 7 6 5 4 3 4 4 3 3 3 3 3 6 7 8 9 8 9 8 7 7 7 5 4 7 9 13 4 4 3 7 10 9 7 13 13 11 9 8 13
12 11 10 9 8 7 6 5 4 3 2 4 3 2 3 2 1 5 10 9 10 9 10 10 6 7 7 5 7 5 10 3 1 2 1 4 8 6 9 13 13 14 15 14 14
12 12 11 9 8 7 7 6 5 4 4 3 2 3 3 3 2 4 8 9 10 10 9 8 8 8 7 7 6 7 5 4 0 2 2 4 2 6 16 18 4 10 6 17 18
11 11 10 10 8 7 6 5 5 4 4 3 2 3 3 4 4 3 6 7 8 11 10 8 10 9 9 6 5 7 3 3 2 3 3 2 7 9 15 18 15 12 12 17 18
11 10 9 8 8 7 7 6 5 5 4 3 2 3 3 7 5 7 5 6 8 9 10 10 5 7 3 4 8 2 5 5 4 6 4 5 8 2 7 11 19 17 16 16 19
10 10 10 9 9 9 8 8 7 6 4 3 4 4 5 5 6 8 7 6 7 9 7 10 7 5 5 4 3 3 4 7 10 7 3 3 10 16 18 12 10 18 20 20 21
6 7 9 9 9 9 9 9 9 8 6 5 4 3 5 6 8 10 10 7 7 8 8 8 8 5 0 5 4 5 4 9 7 8 4 5 12 5 2 13 18 19 20 20 22
5 4 5 6 7 7 7 8 10 10 8 6 4 2 3 4 9 11 11 8 8 9 8 9 7 4 4 6 6 7 9 11 7 7 4 10 8 3 2 7 15 16 20 22 24
7 6 6 5 5 4 3 4 6 8 8 6 7 4 8 6 9 12 12 11 7 10 7 4 4 6 7 9 11 11 9 8 11 5 7 10 16 16 21 18 19 20 22 22 22
12 12 9 8 6 4 2 1 2 1 8 5 2 3 2 8 6 10 13 12 6 9 9 6 8 10 14 14 14 6 7 9 3 3 4 11 18 17 22 26 26 27 29 28 29
23 16 18 14 7 4 3 2 3 2 3 11 15 11 6 5 4 9 16 11 8 10 5 5 13 14 3 1 6 10 13 14 14 3 4 13 20 18 20 28 28 28 30 28 28
18 17 16 16 15 9 4 6 5 3 3 5 11 10 12 13 5 10 18 10 8 14 12 16 3 9 7 7 10 14 15 13 14 3 12 13 16 16 16 21 21 28 32 30 32
8 11 16 14 15 17 17 7 4 4 5 8 8 7 11 9 7 11 17 6 5 12 13 12 9 6 10 15 13 16 12 14 12 8 8 2 10 17 17 18 16 22 26 29 26
9 10 6 13 5 12 11 14 7 1 4 8 5 3 10 11 9 7 17 9 11 9 7 6 9 12 13 10 10 5 3 6 6 9 10 14 8 8 11 10 15 20 24 22 21
7 8 10 7 11 8 9 14 15 4 8 5 5 6 7 7 2 4 8 4 3 6 7 6 1 5 7 4 6 9 5 4 2 4 9 14 15 14 14 11 8 7 9 8 9
9 8 10 13 7 11 13 19 3 5 2 6 4 6 10 8 7 7 11 12 13 9 17 13 10 4 3 5 4 10 7 4 5 6 11 5 6 16 9 9 10 12 15 17 10
12 10 11 13 12 14 18 3 5 5 5 4 3 6 7 8 6 7 8 15 19 16 8 15 12 16 14 16 10 14 15 8 9 8 12 5 10 9 3 7 12 16 22 22 18
7 12 11 14 13 16 12 5 4 6 2 7 6 6 7 5 2 10 14 15 14 20 12 12 13 4 3 11 14 8 11 14 13 3 5 10 20 19 11 8 17 23 25 25 18
6 5 13 14 18 14 4 11 8 2 2 5 10 3 7 9 8 9 10 3 17 12 23 8 17 4 4 3 8 9 2 8 8 6 12 14 19 15 10 13 13 10 14 13 12
4 3 7 15 15 10 10 8 10 4 7 3 6 4 4 1 9 7 2 2 6 0 15 11 7 3 4 11 15 8 10 8 6 9 7 12 13 13 8 7 5 5 6 8 13
5 4 8 23 11 9 11 8 12 11 16 8 7 10 10 8 7 8 9 5 1 6 6 9 6 12 19 7 7 14 22 22 11 12 7 11 19 0 6 4 5 11 13 7 7
5 8 7 24 9 13 13 14 13 11 14 11 14 11 10 10 7 10 10 5 3 3 4 4 5 3 5 10 2 8 15 14 16 9 10 12 13 4 6 4 13 9 5 8 10
6 4 6 17 18 14 18 16 17 12 14 20 8 14 13 14 12 5 4 2 7 4 10 6 4 9 11 6 4 6 17 19 17 10 20 19 27 26 22 19 12 11 12 17 17
12 7 12 7 15 12 14 9 19 13 18 17 10 19 15 12 13 8 10 6 8 11 8 2 5 13 21 22 23 20 14 12 19 23 22 27 23 32 23 20 25 31 29 33 34
8 6 7 11 22 20 14 16 17 19 11 13 17 14 18 18 18 13 14 13 9 9 7 8 5 9 18 22 19 20 22 24 24 25 23 27 28 28 33 31 28 32 32 33 32
24 11 6 11 8 14 18 22 11 16 18 19 11 15 12 12 10 7 2 3 4 2 1 3 1 3 11 12 6 7 22 24 26 26 24 23 28 23 24 21 28 31 24 28 32

GFSSW_850_spd_072.txt.gz
Wind_Speed
12 11 11 10 9 8 7 6 5 4 4 4 4 4 4 4 4 4 3 5 6 6 6 5 4 4 7 2 4 3 2 4 6 3 2 10 5 2 3 6 5 3 1 7 12
13 12 11 10 10 9 8 7 5 5 4 4 4 4 4 3 2 4 6 7 8 6 7 6 2 4 4 4 3 3 3 5 8 10 6 7 6 11 3 7 6 7 8 12 15
13 13 12 11 10 9 8 8 8 7 6 5 5 3 3 2 2 5 8 7 8 8 9 10 5 5 7 3 5 4 3 6 9 9 5 4 4 3 5 5 12 14 17 16 16
15 13 12 11 10 9 8 8 7 6 5 5 5 4 3 5 0 2 6 8 8 8 8 7 6 4 3 5 7 3 6 3 3 3 2 2 4 6 13 7 3 6 6 17 19
13 13 12 11 10 10 8 8 7 5 4 3 3 4 4 2 2 2 4 7 8 9 9 6 7 9 3 5 4 3 2 3 2 1 2 5 7 7 13 15 15 12 7 15 17
13 12 12 10 10 10 9 7 6 5 4 3 2 2 4 3 3 5 4 7 8 9 8 10 2 6 4 2 3 4 5 2 4 5 4 2 7 6 6 11 17 15 15 16 19
11 11 11 11 11 10 9 8 7 6 4 4 2 2 3 4 3 7 7 5 7 10 6 11 8 4 1 1 1 1 3 6 10 7 2 2 7 11 21 14 10 14 18 17 21
9 9 10 11 10 9 9 9 8 6 5 4 2 2 3 4 5 8 8 6 6 8 8 7 7 5 1 4 3 4 2 2 3 11 4 4 6 6 4 16 18 13 16 20 22
6 7 7 9 8 8 8 8 7 7 6 5 3 2 2 3 7 9 11 5 7 6 7 8 9 3 4 3 3 5 4 6 4 9 4 6 5 3 1 3 9 13 17 20 23
10 7 6 6 5 5 5 5 5 6 6 5 5 2 4 4 7 12 11 10 5 8 7 5 4 3 3 4 5 6 4 6 4 6 1 5 11 12 23 18 17 17 18 19 20
14 9 7 7 4 3 3 2 2 3 8 5 4 2 3 6 7 10 13 11 8 6 5 6 4 6 9 10 7 3 5 8 5 3 2 7 11 10 20 24 20 22 24 26 28
15 14 10 9 6 4 3 1 3 2 3 11 12 9 6 6 3 8 15 9 8 6 8 3 6 8 6 3 3 1 6 8 8 6 2 7 12 12 13 22 28 28 28 28 29
15 16 18 17 12 6 3 4 3 3 3 6 12 11 10 10 4 12 19 9 5 7 8 6 2 11 5 3 3 6 7 7 8 2 6 4 8 10 11 28 28 29 32 31 32
5 10 15 26 20 14 12 8 4 2 3 7 7 7 12 9 5 8 17 8 3 9 8 7 9 2 4 5 7 6 3 8 5 5 3 2 6 7 10 9 9 22 25 28 26
8 9 7 16 10 17 15 16 6 2 3 5 5 6 12 11 14 8 19 10 7 6 7 4 6 7 5 5 7 3 4 3 1 3 5 4 4 7 9 7 9 11 23 23 21
6 8 9 12 16 11 16 17 11 4 7 3 5 6 6 3 3 5 8 5 2 3 1 2 2 2 3 4 3 7 4 2 1 2 6 9 8 4 7 4 2 3 5 2 3
9 8 10 11 7 10 11 18 3 5 3 6 4 6 8 6 6 5 6 7 7 5 6 6 6 3 2 5 5 2 5 1 2 0 7 3 3 9 7 8 4 5 13 11 16
12 10 10 12 11 13 13 3 4 8 5 3 3 6 6 7 6 7 7 6 9 5 0 9 6 11 7 8 8 8 7 5 7 4 5 4 9 6 3 3 6 8 15 19 18
6 11 10 12 12 13 7 2 3 3 2 7 8 6 5 4 1 6 5 5 8 13 8 5 8 4 6 2 8 6 7 7 4 2 3 5 10 12 7 6 8 16 18 18 17
3 3 11 12 14 14 3 7 6 3 4 4 5 5 8 11 7 7 8 3 7 9 16 2 3 2 3 3 4 3 1 2 2 3 5 7 7 11 10 14 9 6 8 10 13
3 1 4 14 14 7 6 6 5 8 2 2 4 3 3 8 6 5 1 3 3 4 5 4 4 0 4 6 7 2 4 3 2 5 5 5 7 5 6 5 6 8 11 11 11
4 2 4 17 6 5 8 5 6 6 11 6 3 6 4 5 1 1 2 2 5 4 4 1 2 5 6 2 3 3 6 10 4 4 3 5 16 2 1 3 4 8 8 9 11
4 3 2 21 6 9 5 9 13 6 8 8 6 6 2 5 3 3 1 8 12 6 2 2 1 3 7 3 2 4 4 6 8 2 13 7 13 7 5 5 4 7 8 6 12
4 3 5 15 16 4 11 11 11 6 6 11 5 12 8 9 6 2 5 3 6 6 5 5 2 5 5 4 5 3 9 5 5 5 14 14 24 24 16 11 21 27 26 27 17
6 4 8 4 9 9 7 5 13 10 11 8 5 12 9 7 10 10 4 4 8 11 5 3 4 4 14 13 12 7 9 12 12 13 15 23 18 30 19 13 23 30 28 27 29
5 3 6 8 12 11 9 8 12 16 8 10 11 7 10 12 8 5 9 8 2 6 4 6 2 2 5 7 11 17 16 14 15 17 14 22 20 23 30 29 29 29 28 26 28
22 12 2 6 3 8 16 13 5 7 10 15 12 9 7 9 2 10 9 8 6 6 3 3 3 2 5 5 3 5 16 16 17 19 18 20 25 19 20 22 28 25 32 38 38

GFSSW_850_spd_075.txt.gz
Wind_Speed
15 13 12 11 10 10 9 8 7 6 6 6 4 3 3 3 3 4 5 5 5 7 7 8 8 9 10 5 4 2 4 2 3 3 5 10 4 2 5 11 5 6 8 8 15
15 13 12 12 10 10 9 8 8 7 6 4 4 3 3 3 3 5 5 6 6 7 8 8 8 10 6 4 4 4 4 4 2 2 3 8 6 8 4 7 5 7 8 11 16
17 15 14 13 12 11 10 9 8 7 6 5 4 3 3 3 3 3 7 5 6 8 10 11 5 6 3 6 5 5 5 3 3 4 4 4 4 5 6 3 11 15 16 19 20
15 15 15 13 12 12 10 9 8 7 6 5 4 4 3 5 3 2 6 7 7 8 9 9 9 5 3 3 6 2 4 3 2 2 2 2 1 1 10 4 1 12 15 22 23
14 13 13 13 12 10 10 8 7 6 5 4 3 3 5 4 3 1 5 8 8 9 10 10 8 4 1 2 6 3 1 2 3 1 1 3 3 4 9 12 15 14 9 21 22
14 14 13 12 12 10 9 8 7 6 5 3 2 3 5 2 4 5 5 8 9 10 11 12 5 4 0 4 4 2 2 1 4 2 2 2 4 1 6 6 18 14 15 17 21
13 12 13 11 11 11 10 8 7 6 5 5 3 3 6 7 3 6 7 7 9 12 12 14 7 5 5 3 3 2 2 4 6 6 3 2 5 8 18 14 10 18 18 18 20
13 11 11 12 11 10 10 8 7 7 6 5 4 4 4 7 6 8 8 8 9 11 10 10 9 7 4 7 3 3 3 1 3 11 4 4 7 7 4 14 18 17 16 21 22
11 11 11 11 10 9 9 9 7 7 6 5 4 4 2 6 8 9 10 8 8 8 7 10 11 5 4 6 4 2 2 5 3 6 3 3 5 5 4 4 7 14 18 20 23
11 10 10 9 8 8 8 7 7 7 7 6 5 3 6 7 8 13 12 11 8 10 9 6 4 3 3 4 5 5 3 3 4 4 4 4 9 11 23 21 22 24 23 24 23
13 12 11 9 7 6 6 6 5 3 10 6 6 4 7 7 9 11 14 12 12 6 4 4 4 6 10 8 5 4 4 1 1 4 4 6 8 11 21 24 24 28 29 31 30
15 16 10 9 8 6 7 4 3 3 2 14 7 8 6 10 5 12 15 9 6 5 4 5 3 10 5 5 6 3 3 3 2 2 3 6 11 11 13 21 31 33 34 34 32
18 14 19 10 7 6 5 4 3 3 0 4 15 15 9 13 5 14 20 8 4 5 6 6 5 11 5 2 4 2 4 3 5 1 2 4 8 7 7 11 19 24 29 28 28
20 18 16 19 16 11 7 8 4 5 2 4 7 8 13 10 4 10 22 7 3 10 7 6 6 3 5 4 5 2 0 4 4 3 3 3 6 6 7 13 6 20 22 23 25
8 7 18 17 21 21 15 11 5 3 1 1 5 8 15 10 16 9 21 8 7 6 7 7 6 7 4 5 5 6 2 2 2 2 2 4 1 8 5 6 11 13 14 10 9
9 12 13 13 17 21 22 19 6 4 7 3 5 5 6 2 2 6 7 7 5 2 4 3 2 2 6 2 2 8 5 7 5 3 3 8 8 4 4 5 3 3 3 4 6
10 11 12 11 15 16 13 20 4 6 4 5 4 6 4 5 3 3 6 6 7 5 5 2 3 2 3 6 7 5 6 2 3 2 6 4 1 6 6 5 4 4 7 6 8
11 12 12 12 8 11 21 4 4 7 2 2 5 6 6 6 4 6 7 5 5 2 4 7 5 8 6 7 8 7 7 6 7 4 4 5 6 4 7 4 8 7 11 12 11
9 11 11 12 15 13 6 2 3 4 2 6 4 4 4 3 6 5 7 6 8 8 7 6 6 2 3 4 9 5 6 6 4 2 3 5 7 8 9 7 16 19 13 13 13
7 8 11 12 11 12 1 4 3 3 4 6 4 6 6 7 5 5 8 4 5 10 6 3 1 4 2 3 4 6 5 3 2 3 4 5 5 8 10 9 4 7 11 14 13
7 5 8 12 14 7 5 5 5 4 6 5 5 2 2 6 6 6 8 3 2 3 15 5 3 3 2 4 8 3 2 2 4 5 5 2 7 7 8 7 4 4 8 11 11
5 2 9 17 5 4 5 4 3 8 10 2 2 2 2 4 3 6 4 3 11 1 8 1 4 4 6 3 2 3 5 6 4 3 4 3 13 3 10 4 12 10 15 16 16
5 2 8 17 4 3 3 4 3 5 6 6 9 6 5 2 1 0 4 2 12 6 2 2 1 3 6 3 3 3 2 3 1 4 12 4 14 2 7 14 19 12 19 25 30
4 2 2 13 8 2 5 5 8 12 4 4 4 4 4 6 5 2 2 2 3 5 10 7 2 4 6 4 3 3 4 4 2 3 3 14 20 21 8 11 22 31 36 39 33
4 3 6 5 5 7 1 5 9 6 7 10 2 6 7 5 5 5 4 3 2 9 5 5 5 2 3 2 3 3 6 5 5 6 5 14 10 29 15 14 20 27 29 30 26
8 3 1 2 10 11 7 5 8 7 7 4 4 8 6 5 5 7 8 5 4 2 3 1 3 2 2 5 5 6 11 10 12 16 14 20 22 23 32 27 17 22 22 26 27
18 7 2 4 4 5 6 4 3 4 5 11 10 4 1 3 6 9 11 7 9 8 3 5 5 3 4 1 4 5 11 12 7 6 8 14 20 19 15 14 9 19 11 15 20